Year,Month,Day,Hour,Minute,Value (Times are PST for temperature in C)
2010,07,21,00,00,13.40
2010,07,21,00,01,13.40
2010,07,21,00,02,13.40
2010,07,21,00,03,13.40
2010,07,21,00,04,13.40
2010,07,21,00,05,13.40
2010,07,21,00,06,13.30
2010,07,21,00,07,13.30
2010,07,21,00,08,13.30
2010,07,21,00,09,13.30
2010,07,21,00,10,13.30
2010,07,21,00,11,13.30
2010,07,21,00,12,13.30
2010,07,21,00,13,13.20
2010,07,21,00,14,13.20
2010,07,21,00,15,13.20
2010,07,21,00,16,13.20
2010,07,21,00,17,13.20
2010,07,21,00,18,13.20
2010,07,21,00,19,13.20
2010,07,21,00,20,13.20
2010,07,21,00,21,13.20
2010,07,21,00,22,13.20
2010,07,21,00,23,13.20
2010,07,21,00,24,13.20
2010,07,21,00,25,13.20
2010,07,21,00,26,13.10
2010,07,21,00,27,13.10
2010,07,21,00,28,13.10
2010,07,21,00,29,13.10
2010,07,21,00,30,13.10
2010,07,21,00,31,13.10
2010,07,21,00,32,13.10
2010,07,21,00,33,13.10
2010,07,21,00,34,13.10
2010,07,21,00,35,13.10
2010,07,21,00,36,13.10
2010,07,21,00,37,13.10
2010,07,21,00,38,13.10
2010,07,21,00,39,13.10
2010,07,21,00,40,13.10
2010,07,21,00,41,13.10
2010,07,21,00,42,13.10
2010,07,21,00,43,13.10
2010,07,21,00,44,13.10
2010,07,21,00,45,13.00
2010,07,21,00,46,13.00
2010,07,21,00,47,13.00
2010,07,21,00,48,13.00
2010,07,21,00,49,12.90
2010,07,21,00,50,12.90
2010,07,21,00,51,12.90
2010,07,21,00,52,12.90
2010,07,21,00,53,12.90
2010,07,21,00,54,12.90
2010,07,21,00,55,12.90
2010,07,21,00,56,12.90
2010,07,21,00,57,12.90
2010,07,21,00,58,12.90
2010,07,21,00,59,12.90
2010,07,21,01,00,12.90
2010,07,21,01,01,12.90
2010,07,21,01,02,12.90
2010,07,21,01,03,12.90
2010,07,21,01,04,12.80
2010,07,21,01,05,12.80
2010,07,21,01,06,12.80
2010,07,21,01,07,12.80
2010,07,21,01,08,12.80
2010,07,21,01,09,12.80
2010,07,21,01,10,12.80
2010,07,21,01,11,12.80
2010,07,21,01,12,12.80
2010,07,21,01,13,12.80
2010,07,21,01,14,12.80
2010,07,21,01,15,12.80
2010,07,21,01,16,12.80
2010,07,21,01,17,12.80
2010,07,21,01,18,12.80
2010,07,21,01,19,12.80
2010,07,21,01,20,12.80
2010,07,21,01,21,12.80
2010,07,21,01,22,12.80
2010,07,21,01,23,12.80
2010,07,21,01,24,12.80
2010,07,21,01,25,12.80
2010,07,21,01,26,12.80
2010,07,21,01,27,12.80
2010,07,21,01,28,12.80
2010,07,21,01,29,12.80
2010,07,21,01,30,12.80
2010,07,21,01,31,12.80
2010,07,21,01,32,12.80
2010,07,21,01,33,12.80
2010,07,21,01,34,12.80
2010,07,21,01,35,12.80
2010,07,21,01,36,12.80
2010,07,21,01,37,12.80
2010,07,21,01,38,12.80
2010,07,21,01,39,12.80
2010,07,21,01,40,12.80
2010,07,21,01,41,12.80
2010,07,21,01,42,12.80
2010,07,21,01,43,12.80
2010,07,21,01,44,12.80
2010,07,21,01,45,12.80
2010,07,21,01,46,12.80
2010,07,21,01,47,12.80
2010,07,21,01,48,12.80
2010,07,21,01,49,12.80
2010,07,21,01,50,12.70
2010,07,21,01,51,12.70
2010,07,21,01,52,12.70
2010,07,21,01,53,12.70
2010,07,21,01,54,12.70
2010,07,21,01,55,12.70
2010,07,21,01,56,12.70
2010,07,21,01,57,12.60
2010,07,21,01,58,12.60
2010,07,21,01,59,12.60
2010,07,21,02,00,12.60
2010,07,21,02,01,12.60
2010,07,21,02,02,12.60
2010,07,21,02,03,12.60
2010,07,21,02,04,12.60
2010,07,21,02,05,12.50
2010,07,21,02,06,12.50
2010,07,21,02,07,12.50
2010,07,21,02,08,12.40
2010,07,21,02,09,12.40
2010,07,21,02,10,12.40
2010,07,21,02,11,12.40
2010,07,21,02,12,12.40
2010,07,21,02,13,12.40
2010,07,21,02,14,12.40
2010,07,21,02,15,12.40
2010,07,21,02,16,12.40
2010,07,21,02,17,12.40
2010,07,21,02,18,12.40
2010,07,21,02,19,12.40
2010,07,21,02,20,12.40
2010,07,21,02,21,12.40
2010,07,21,02,22,12.30
2010,07,21,02,23,12.30
2010,07,21,02,24,12.30
2010,07,21,02,25,12.30
2010,07,21,02,26,12.30
2010,07,21,02,27,12.30
2010,07,21,02,28,12.30
2010,07,21,02,29,12.30
2010,07,21,02,30,12.30
2010,07,21,02,31,12.30
2010,07,21,02,32,12.30
2010,07,21,02,33,12.30
2010,07,21,02,34,12.30
2010,07,21,02,35,12.20
2010,07,21,02,36,12.20
2010,07,21,02,37,12.20
2010,07,21,02,38,12.20
2010,07,21,02,39,12.20
2010,07,21,02,40,12.20
2010,07,21,02,41,12.20
2010,07,21,02,42,12.20
2010,07,21,02,43,12.10
2010,07,21,02,44,12.10
2010,07,21,02,45,12.10
2010,07,21,02,46,12.10
2010,07,21,02,47,12.10
2010,07,21,02,48,12.20
2010,07,21,02,49,12.20
2010,07,21,02,50,12.20
2010,07,21,02,51,12.20
2010,07,21,02,52,12.20
2010,07,21,02,53,12.20
2010,07,21,02,54,12.20
2010,07,21,02,55,12.20
2010,07,21,02,56,12.20
2010,07,21,02,57,12.20
2010,07,21,02,58,12.20
2010,07,21,02,59,12.20
2010,07,21,03,00,12.20
2010,07,21,03,01,12.20
2010,07,21,03,02,12.20
2010,07,21,03,03,12.20
2010,07,21,03,04,12.20
2010,07,21,03,05,12.20
2010,07,21,03,06,12.20
2010,07,21,03,07,12.20
2010,07,21,03,08,12.20
2010,07,21,03,09,12.20
2010,07,21,03,10,12.10
2010,07,21,03,11,12.10
2010,07,21,03,12,12.10
2010,07,21,03,13,12.10
2010,07,21,03,14,12.10
2010,07,21,03,15,12.10
2010,07,21,03,16,12.10
2010,07,21,03,17,12.10
2010,07,21,03,18,12.10
2010,07,21,03,19,12.10
2010,07,21,03,20,12.10
2010,07,21,03,21,12.10
2010,07,21,03,22,12.10
2010,07,21,03,23,12.10
2010,07,21,03,24,12.10
2010,07,21,03,25,12.10
2010,07,21,03,26,12.10
2010,07,21,03,27,12.10
2010,07,21,03,28,12.10
2010,07,21,03,29,12.10
2010,07,21,03,30,12.10
2010,07,21,03,31,12.10
2010,07,21,03,32,12.10
2010,07,21,03,33,12.10
2010,07,21,03,34,12.10
2010,07,21,03,35,12.00
2010,07,21,03,36,12.00
2010,07,21,03,37,12.00
2010,07,21,03,38,12.00
2010,07,21,03,39,12.00
2010,07,21,03,40,11.90
2010,07,21,03,41,11.90
2010,07,21,03,42,11.90
2010,07,21,03,43,11.90
2010,07,21,03,44,11.90
2010,07,21,03,45,11.90
2010,07,21,03,46,11.90
2010,07,21,03,47,11.90
2010,07,21,03,48,11.90
2010,07,21,03,49,11.90
2010,07,21,03,50,12.00
2010,07,21,03,51,11.90
2010,07,21,03,52,12.00
2010,07,21,03,53,12.00
2010,07,21,03,54,12.00
2010,07,21,03,55,12.00
2010,07,21,03,56,12.00
2010,07,21,03,57,12.00
2010,07,21,03,58,12.00
2010,07,21,03,59,12.00
2010,07,21,04,00,12.00
2010,07,21,04,01,12.00
2010,07,21,04,02,12.00
2010,07,21,04,03,12.00
2010,07,21,04,04,12.00
2010,07,21,04,05,12.00
2010,07,21,04,06,12.00
2010,07,21,04,07,12.00
2010,07,21,04,08,12.00
2010,07,21,04,09,12.00
2010,07,21,04,10,12.00
2010,07,21,04,11,12.00
2010,07,21,04,12,12.00
2010,07,21,04,13,12.00
2010,07,21,04,14,12.00
2010,07,21,04,15,12.00
2010,07,21,04,16,12.00
2010,07,21,04,17,12.00
2010,07,21,04,18,12.00
2010,07,21,04,19,12.00
2010,07,21,04,20,12.00
2010,07,21,04,21,12.00
2010,07,21,04,22,11.90
2010,07,21,04,23,11.90
2010,07,21,04,24,11.90
2010,07,21,04,25,11.90
2010,07,21,04,26,11.90
2010,07,21,04,27,11.90
2010,07,21,04,28,11.90
2010,07,21,04,29,11.90
2010,07,21,04,30,11.90
2010,07,21,04,31,11.90
2010,07,21,04,32,11.90
2010,07,21,04,33,11.90
2010,07,21,04,34,11.90
2010,07,21,04,35,11.80
2010,07,21,04,36,11.80
2010,07,21,04,37,11.80
2010,07,21,04,38,11.80
2010,07,21,04,39,11.80
2010,07,21,04,40,11.80
2010,07,21,04,41,11.80
2010,07,21,04,42,11.80
2010,07,21,04,43,11.80
2010,07,21,04,44,11.80
2010,07,21,04,45,11.80
2010,07,21,04,46,11.80
2010,07,21,04,47,11.80
2010,07,21,04,48,11.80
2010,07,21,04,49,11.80
2010,07,21,04,50,11.80
2010,07,21,04,51,11.80
2010,07,21,04,52,11.80
2010,07,21,04,53,11.80
2010,07,21,04,54,11.80
2010,07,21,04,55,11.80
2010,07,21,04,56,11.80
2010,07,21,04,57,11.80
2010,07,21,04,58,11.90
2010,07,21,04,59,11.90
2010,07,21,05,00,11.90
2010,07,21,05,01,11.90
2010,07,21,05,02,11.90
2010,07,21,05,03,11.90
2010,07,21,05,04,11.80
2010,07,21,05,05,11.80
2010,07,21,05,06,11.80
2010,07,21,05,07,11.80
2010,07,21,05,08,11.80
2010,07,21,05,09,11.80
2010,07,21,05,10,11.80
2010,07,21,05,11,11.80
2010,07,21,05,12,11.80
2010,07,21,05,13,11.80
2010,07,21,05,14,11.80
2010,07,21,05,15,11.80
2010,07,21,05,16,11.80
2010,07,21,05,17,11.80
2010,07,21,05,18,11.80
2010,07,21,05,19,11.80
2010,07,21,05,20,11.80
2010,07,21,05,21,11.80
2010,07,21,05,22,11.80
2010,07,21,05,23,11.80
2010,07,21,05,24,11.80
2010,07,21,05,25,11.80
2010,07,21,05,26,11.80
2010,07,21,05,27,11.80
2010,07,21,05,28,11.80
2010,07,21,05,29,11.80
2010,07,21,05,30,11.80
2010,07,21,05,31,11.80
2010,07,21,05,32,11.80
2010,07,21,05,33,11.80
2010,07,21,05,34,11.80
2010,07,21,05,35,11.80
2010,07,21,05,36,11.80
2010,07,21,05,37,11.80
2010,07,21,05,38,11.80
2010,07,21,05,39,11.80
2010,07,21,05,40,11.80
2010,07,21,05,41,11.80
2010,07,21,05,42,11.80
2010,07,21,05,43,11.80
2010,07,21,05,44,11.80
2010,07,21,05,45,11.80
2010,07,21,05,46,11.80
2010,07,21,05,47,11.80
2010,07,21,05,48,11.80
2010,07,21,05,49,11.80
2010,07,21,05,50,11.80
2010,07,21,05,51,11.80
2010,07,21,05,52,11.80
2010,07,21,05,53,11.80
2010,07,21,05,54,11.80
2010,07,21,05,55,11.80
2010,07,21,05,56,11.80
2010,07,21,05,57,11.80
2010,07,21,05,58,11.80
2010,07,21,05,59,11.80
2010,07,21,06,00,11.80
2010,07,21,06,01,11.80
2010,07,21,06,02,11.80
2010,07,21,06,03,11.80
2010,07,21,06,04,11.80
2010,07,21,06,05,11.90
2010,07,21,06,06,11.90
2010,07,21,06,07,11.90
2010,07,21,06,08,11.90
2010,07,21,06,09,11.90
2010,07,21,06,10,11.90
2010,07,21,06,11,11.90
2010,07,21,06,12,11.90
2010,07,21,06,13,11.90
2010,07,21,06,14,11.90
2010,07,21,06,15,11.90
2010,07,21,06,16,11.90
2010,07,21,06,17,11.90
2010,07,21,06,18,12.00
2010,07,21,06,19,12.00
2010,07,21,06,20,12.00
2010,07,21,06,21,12.00
2010,07,21,06,22,12.00
2010,07,21,06,23,12.00
2010,07,21,06,24,12.00
2010,07,21,06,25,12.00
2010,07,21,06,26,12.00
2010,07,21,06,27,12.10
2010,07,21,06,28,12.10
2010,07,21,06,29,12.10
2010,07,21,06,30,12.10
2010,07,21,06,31,12.10
2010,07,21,06,32,12.10
2010,07,21,06,33,12.10
2010,07,21,06,34,12.10
2010,07,21,06,35,12.20
2010,07,21,06,36,12.20
2010,07,21,06,37,12.20
2010,07,21,06,38,12.20
2010,07,21,06,39,12.20
2010,07,21,06,40,12.30
2010,07,21,06,41,12.30
2010,07,21,06,42,12.30
2010,07,21,06,43,12.30
2010,07,21,06,44,12.30
2010,07,21,06,45,12.40
2010,07,21,06,46,12.40
2010,07,21,06,47,12.40
2010,07,21,06,48,12.40
2010,07,21,06,49,12.40
2010,07,21,06,50,12.50
2010,07,21,06,51,12.50
2010,07,21,06,52,12.60
2010,07,21,06,53,12.60
2010,07,21,06,54,12.60
2010,07,21,06,55,12.70
2010,07,21,06,56,12.70
2010,07,21,06,57,12.70
2010,07,21,06,58,12.80
2010,07,21,06,59,12.80
2010,07,21,07,00,12.80
2010,07,21,07,01,12.90
2010,07,21,07,02,13.00
2010,07,21,07,03,13.10
2010,07,21,07,04,13.10
2010,07,21,07,05,13.20
2010,07,21,07,06,13.30
2010,07,21,07,07,13.40
2010,07,21,07,08,13.50
2010,07,21,07,09,13.60
2010,07,21,07,10,13.60
2010,07,21,07,11,13.70
2010,07,21,07,12,13.80
2010,07,21,07,13,13.90
2010,07,21,07,14,14.00
2010,07,21,07,15,14.00
2010,07,21,07,16,14.10
2010,07,21,07,17,14.20
2010,07,21,07,18,14.30
2010,07,21,07,19,14.30
2010,07,21,07,20,14.40
2010,07,21,07,21,14.50
2010,07,21,07,22,14.60
2010,07,21,07,23,14.70
2010,07,21,07,24,14.70
2010,07,21,07,25,14.80
2010,07,21,07,26,14.90
2010,07,21,07,27,15.00
2010,07,21,07,28,15.00
2010,07,21,07,29,15.10
2010,07,21,07,30,15.20
2010,07,21,07,31,15.20
2010,07,21,07,32,15.30
2010,07,21,07,33,15.30
2010,07,21,07,34,15.40
2010,07,21,07,35,15.50
2010,07,21,07,36,15.50
2010,07,21,07,37,15.60
2010,07,21,07,38,15.60
2010,07,21,07,39,15.70
2010,07,21,07,40,15.80
2010,07,21,07,41,15.80
2010,07,21,07,42,15.90
2010,07,21,07,43,15.90
2010,07,21,07,44,16.00
2010,07,21,07,45,16.10
2010,07,21,07,46,16.10
2010,07,21,07,47,16.20
2010,07,21,07,48,16.20
2010,07,21,07,49,16.30
2010,07,21,07,50,16.30
2010,07,21,07,51,16.30
2010,07,21,07,52,16.40
2010,07,21,07,53,16.40
2010,07,21,07,54,16.50
2010,07,21,07,55,16.50
2010,07,21,07,56,16.50
2010,07,21,07,57,16.60
2010,07,21,07,58,16.60
2010,07,21,07,59,16.70
2010,07,21,08,00,16.70
2010,07,21,08,01,16.80
2010,07,21,08,02,16.80
2010,07,21,08,03,16.90
2010,07,21,08,04,16.90
2010,07,21,08,05,17.00
2010,07,21,08,06,17.00
2010,07,21,08,07,17.10
2010,07,21,08,08,17.20
2010,07,21,08,09,17.30
2010,07,21,08,10,17.30
2010,07,21,08,11,17.40
2010,07,21,08,12,17.40
2010,07,21,08,13,17.50
2010,07,21,08,14,17.50
2010,07,21,08,15,17.60
2010,07,21,08,16,17.60
2010,07,21,08,17,17.70
2010,07,21,08,18,17.80
2010,07,21,08,19,17.90
2010,07,21,08,20,17.90
2010,07,21,08,21,18.00
2010,07,21,08,22,18.10
2010,07,21,08,23,18.20
2010,07,21,08,24,18.30
2010,07,21,08,25,18.40
2010,07,21,08,26,18.50
2010,07,21,08,27,18.50
2010,07,21,08,28,18.60
2010,07,21,08,29,18.60
2010,07,21,08,30,18.60
2010,07,21,08,31,18.60
2010,07,21,08,32,18.60
2010,07,21,08,33,18.60
2010,07,21,08,34,18.70
2010,07,21,08,35,18.70
2010,07,21,08,36,18.80
2010,07,21,08,37,18.90
2010,07,21,08,38,18.90
2010,07,21,08,39,18.90
2010,07,21,08,40,19.00
2010,07,21,08,41,19.00
2010,07,21,08,42,19.10
2010,07,21,08,43,19.10
2010,07,21,08,44,19.10
2010,07,21,08,45,19.20
2010,07,21,08,46,19.20
2010,07,21,08,47,19.20
2010,07,21,08,48,19.20
2010,07,21,08,49,19.30
2010,07,21,08,50,19.30
2010,07,21,08,51,19.40
2010,07,21,08,52,19.50
2010,07,21,08,53,19.60
2010,07,21,08,54,19.70
2010,07,21,08,55,19.80
2010,07,21,08,56,19.80
2010,07,21,08,57,19.90
2010,07,21,08,58,20.00
2010,07,21,08,59,20.10
2010,07,21,09,00,20.10
2010,07,21,09,01,20.20
2010,07,21,09,02,20.30
2010,07,21,09,03,20.30
2010,07,21,09,04,20.40
2010,07,21,09,05,20.40
2010,07,21,09,06,20.50
2010,07,21,09,07,20.50
2010,07,21,09,08,20.60
2010,07,21,09,09,20.60
2010,07,21,09,10,20.70
2010,07,21,09,11,20.70
2010,07,21,09,12,20.70
2010,07,21,09,13,20.70
2010,07,21,09,14,20.70
2010,07,21,09,15,20.70
2010,07,21,09,16,20.70
2010,07,21,09,17,20.70
2010,07,21,09,18,20.60
2010,07,21,09,19,20.60
2010,07,21,09,20,20.60
2010,07,21,09,21,20.70
2010,07,21,09,22,20.70
2010,07,21,09,23,20.70
2010,07,21,09,24,20.60
2010,07,21,09,25,20.60
2010,07,21,09,26,20.60
2010,07,21,09,27,20.50
2010,07,21,09,28,20.50
2010,07,21,09,29,20.40
2010,07,21,09,30,20.40
2010,07,21,09,31,20.40
2010,07,21,09,32,20.40
2010,07,21,09,33,20.30
2010,07,21,09,34,20.30
2010,07,21,09,35,20.20
2010,07,21,09,36,20.20
2010,07,21,09,37,20.20
2010,07,21,09,38,20.20
2010,07,21,09,39,20.20
2010,07,21,09,40,20.20
2010,07,21,09,41,20.30
2010,07,21,09,42,20.40
2010,07,21,09,43,20.40
2010,07,21,09,44,20.50
2010,07,21,09,45,20.50
2010,07,21,09,46,20.60
2010,07,21,09,47,20.70
2010,07,21,09,48,20.80
2010,07,21,09,49,20.90
2010,07,21,09,50,20.90
2010,07,21,09,51,21.00
2010,07,21,09,52,21.00
2010,07,21,09,53,21.00
2010,07,21,09,54,21.10
2010,07,21,09,55,21.20
2010,07,21,09,56,21.20
2010,07,21,09,57,21.30
2010,07,21,09,58,21.40
2010,07,21,09,59,21.40
2010,07,21,10,00,21.50
2010,07,21,10,01,21.50
2010,07,21,10,02,21.60
2010,07,21,10,03,21.70
2010,07,21,10,04,21.70
2010,07,21,10,05,21.70
2010,07,21,10,06,21.80
2010,07,21,10,07,21.80
2010,07,21,10,08,21.80
2010,07,21,10,09,21.90
2010,07,21,10,10,21.90
2010,07,21,10,11,22.00
2010,07,21,10,12,22.10
2010,07,21,10,13,22.10
2010,07,21,10,14,22.20
2010,07,21,10,15,22.20
2010,07,21,10,16,22.20
2010,07,21,10,17,22.20
2010,07,21,10,18,22.20
2010,07,21,10,19,22.10
2010,07,21,10,20,22.00
2010,07,21,10,21,21.90
2010,07,21,10,22,21.90
2010,07,21,10,23,21.90
2010,07,21,10,24,21.90
2010,07,21,10,25,21.90
2010,07,21,10,26,21.90
2010,07,21,10,27,21.90
2010,07,21,10,28,21.90
2010,07,21,10,29,21.80
2010,07,21,10,30,21.80
2010,07,21,10,31,21.80
2010,07,21,10,32,21.80
2010,07,21,10,33,21.90
2010,07,21,10,34,21.90
2010,07,21,10,35,22.00
2010,07,21,10,36,22.10
2010,07,21,10,37,22.20
2010,07,21,10,38,22.20
2010,07,21,10,39,22.30
2010,07,21,10,40,22.30
2010,07,21,10,41,22.30
2010,07,21,10,42,22.30
2010,07,21,10,43,22.30
2010,07,21,10,44,22.30
2010,07,21,10,45,22.30
2010,07,21,10,46,22.30
2010,07,21,10,47,22.30
2010,07,21,10,48,22.40
2010,07,21,10,49,22.50
2010,07,21,10,50,22.50
2010,07,21,10,51,22.60
2010,07,21,10,52,22.70
2010,07,21,10,53,22.80
2010,07,21,10,54,22.80
2010,07,21,10,55,22.90
2010,07,21,10,56,23.00
2010,07,21,10,57,23.00
2010,07,21,10,58,23.10
2010,07,21,10,59,23.00
2010,07,21,11,00,23.00
2010,07,21,11,01,23.00
2010,07,21,11,02,23.00
2010,07,21,11,03,23.10
2010,07,21,11,04,23.10
2010,07,21,11,05,23.20
2010,07,21,11,06,23.30
2010,07,21,11,07,23.40
2010,07,21,11,08,23.40
2010,07,21,11,09,23.40
2010,07,21,11,10,23.50
2010,07,21,11,11,23.40
2010,07,21,11,12,23.40
2010,07,21,11,13,23.40
2010,07,21,11,14,23.40
2010,07,21,11,15,23.40
2010,07,21,11,16,23.40
2010,07,21,11,17,23.40
2010,07,21,11,18,23.40
2010,07,21,11,19,23.40
2010,07,21,11,20,23.40
2010,07,21,11,21,23.50
2010,07,21,11,22,23.50
2010,07,21,11,23,23.40
2010,07,21,11,24,23.30
2010,07,21,11,25,23.20
2010,07,21,11,26,23.20
2010,07,21,11,27,23.20
2010,07,21,11,28,23.10
2010,07,21,11,29,23.10
2010,07,21,11,30,23.10
2010,07,21,11,31,23.00
2010,07,21,11,32,22.90
2010,07,21,11,33,22.90
2010,07,21,11,34,22.90
2010,07,21,11,35,22.90
2010,07,21,11,36,22.90
2010,07,21,11,37,22.90
2010,07,21,11,38,22.90
2010,07,21,11,39,23.00
2010,07,21,11,40,22.90
2010,07,21,11,41,22.90
2010,07,21,11,42,22.90
2010,07,21,11,43,22.80
2010,07,21,11,44,22.80
2010,07,21,11,45,22.80
2010,07,21,11,46,22.90
2010,07,21,11,47,23.00
2010,07,21,11,48,23.00
2010,07,21,11,49,23.10
2010,07,21,11,50,23.10
2010,07,21,11,51,23.20
2010,07,21,11,52,23.30
2010,07,21,11,53,23.30
2010,07,21,11,54,23.20
2010,07,21,11,55,23.20
2010,07,21,11,56,23.10
2010,07,21,11,57,23.10
2010,07,21,11,58,23.00
2010,07,21,11,59,22.90
2010,07,21,12,00,22.80
2010,07,21,12,01,22.70
2010,07,21,12,02,22.60
2010,07,21,12,03,22.50
2010,07,21,12,04,22.40
2010,07,21,12,05,22.30
2010,07,21,12,06,22.30
2010,07,21,12,07,22.20
2010,07,21,12,08,22.20
2010,07,21,12,09,22.20
2010,07,21,12,10,22.20
2010,07,21,12,11,22.20
2010,07,21,12,12,22.20
2010,07,21,12,13,22.20
2010,07,21,12,14,22.10
2010,07,21,12,15,22.10
2010,07,21,12,16,22.00
2010,07,21,12,17,22.00
2010,07,21,12,18,21.90
2010,07,21,12,19,21.90
2010,07,21,12,20,21.80
2010,07,21,12,21,21.90
2010,07,21,12,22,21.90
2010,07,21,12,23,21.90
2010,07,21,12,24,21.90
2010,07,21,12,25,21.90
2010,07,21,12,26,21.90
2010,07,21,12,27,21.80
2010,07,21,12,28,21.70
2010,07,21,12,29,21.70
2010,07,21,12,30,21.70
2010,07,21,12,31,21.70
2010,07,21,12,32,21.80
2010,07,21,12,33,21.80
2010,07,21,12,34,21.80
2010,07,21,12,35,21.70
2010,07,21,12,36,21.70
2010,07,21,12,37,21.70
2010,07,21,12,38,21.70
2010,07,21,12,39,21.70
2010,07,21,12,40,21.60
2010,07,21,12,41,21.60
2010,07,21,12,42,21.60
2010,07,21,12,43,21.50
2010,07,21,12,44,21.50
2010,07,21,12,45,21.60
2010,07,21,12,46,21.60
2010,07,21,12,47,21.60
2010,07,21,12,48,21.70
2010,07,21,12,49,21.70
2010,07,21,12,50,21.80
2010,07,21,12,51,21.80
2010,07,21,12,52,21.80
2010,07,21,12,53,21.70
2010,07,21,12,54,21.70
2010,07,21,12,55,21.70
2010,07,21,12,56,21.70
2010,07,21,12,57,21.70
2010,07,21,12,58,21.70
2010,07,21,12,59,21.70
2010,07,21,13,00,21.80
2010,07,21,13,01,21.80
2010,07,21,13,02,21.90
2010,07,21,13,03,22.00
2010,07,21,13,04,22.10
2010,07,21,13,05,22.10
2010,07,21,13,06,22.20
2010,07,21,13,07,22.30
2010,07,21,13,08,22.30
2010,07,21,13,09,22.40
2010,07,21,13,10,22.50
2010,07,21,13,11,22.50
2010,07,21,13,12,22.50
2010,07,21,13,13,22.60
2010,07,21,13,14,22.50
2010,07,21,13,15,22.50
2010,07,21,13,16,22.40
2010,07,21,13,17,22.40
2010,07,21,13,18,22.40
2010,07,21,13,19,22.40
2010,07,21,13,20,22.40
2010,07,21,13,21,22.40
2010,07,21,13,22,22.40
2010,07,21,13,23,22.40
2010,07,21,13,24,22.40
2010,07,21,13,25,22.30
2010,07,21,13,26,22.20
2010,07,21,13,27,22.10
2010,07,21,13,28,22.00
2010,07,21,13,29,21.90
2010,07,21,13,30,21.90
2010,07,21,13,31,21.80
2010,07,21,13,32,21.80
2010,07,21,13,33,21.80
2010,07,21,13,34,21.80
2010,07,21,13,35,21.80
2010,07,21,13,36,21.80
2010,07,21,13,37,21.80
2010,07,21,13,38,21.80
2010,07,21,13,39,21.90
2010,07,21,13,40,22.00
2010,07,21,13,41,22.10
2010,07,21,13,42,22.10
2010,07,21,13,43,22.10
2010,07,21,13,44,22.20
2010,07,21,13,45,22.20
2010,07,21,13,46,22.30
2010,07,21,13,47,22.30
2010,07,21,13,48,22.40
2010,07,21,13,49,22.40
2010,07,21,13,50,22.40
2010,07,21,13,51,22.50
2010,07,21,13,52,22.50
2010,07,21,13,53,22.50
2010,07,21,13,54,22.50
2010,07,21,13,55,22.40
2010,07,21,13,56,22.30
2010,07,21,13,57,22.20
2010,07,21,13,58,22.20
2010,07,21,13,59,22.10
2010,07,21,14,00,22.10
2010,07,21,14,01,22.10
2010,07,21,14,02,22.10
2010,07,21,14,03,22.10
2010,07,21,14,04,22.10
2010,07,21,14,05,22.10
2010,07,21,14,06,22.10
2010,07,21,14,07,22.10
2010,07,21,14,08,22.10
2010,07,21,14,09,22.10
2010,07,21,14,25,21.80
2010,07,21,14,26,21.80
2010,07,21,14,27,21.80
2010,07,21,14,28,21.80
2010,07,21,14,29,21.80
2010,07,21,14,30,21.90
2010,07,21,14,31,21.90
2010,07,21,14,32,21.80
2010,07,21,14,33,21.70
2010,07,21,14,34,21.60
2010,07,21,14,35,21.60
2010,07,21,14,36,21.60
2010,07,21,14,37,21.60
2010,07,21,14,38,21.60
2010,07,21,14,39,21.70
2010,07,21,14,40,21.70
2010,07,21,14,41,21.70
2010,07,21,14,42,21.80
2010,07,21,14,43,21.90
2010,07,21,14,44,22.00
2010,07,21,14,45,22.00
2010,07,21,14,46,22.10
2010,07,21,14,47,22.10
2010,07,21,14,48,22.20
2010,07,21,14,49,22.20
2010,07,21,14,50,22.20
2010,07,21,14,51,22.30
2010,07,21,14,52,22.30
2010,07,21,14,53,22.30
2010,07,21,14,54,22.20
2010,07,21,14,55,22.10
2010,07,21,14,56,22.00
2010,07,21,14,57,22.00
2010,07,21,14,58,21.90
2010,07,21,14,59,21.90
2010,07,21,15,00,21.90
2010,07,21,15,01,21.80
2010,07,21,15,02,21.80
2010,07,21,15,03,21.80
2010,07,21,15,04,21.70
2010,07,21,15,05,21.70
2010,07,21,15,06,21.60
2010,07,21,15,07,21.50
2010,07,21,15,08,21.30
2010,07,21,15,09,21.20
2010,07,21,15,10,21.10
2010,07,21,15,11,21.00
2010,07,21,15,12,20.90
2010,07,21,15,13,20.90
2010,07,21,15,14,20.90
2010,07,21,15,15,20.90
2010,07,21,15,16,20.90
2010,07,21,15,17,21.00
2010,07,21,15,18,21.00
2010,07,21,15,19,21.10
2010,07,21,15,20,21.20
2010,07,21,15,21,21.30
2010,07,21,15,22,21.40
2010,07,21,15,23,21.40
2010,07,21,15,24,21.40
2010,07,21,15,25,21.30
2010,07,21,15,26,21.30
2010,07,21,15,27,21.30
2010,07,21,15,28,21.30
2010,07,21,15,29,21.30
2010,07,21,15,30,21.40
2010,07,21,15,31,21.40
2010,07,21,15,32,21.40
2010,07,21,15,33,21.50
2010,07,21,15,34,21.50
2010,07,21,15,35,21.50
2010,07,21,15,36,21.50
2010,07,21,15,37,21.60
2010,07,21,15,38,21.60
2010,07,21,15,39,21.50
2010,07,21,15,40,21.50
2010,07,21,15,41,21.40
2010,07,21,15,42,21.40
2010,07,21,15,43,21.30
2010,07,21,15,44,21.30
2010,07,21,15,45,21.30
2010,07,21,15,46,21.30
2010,07,21,15,47,21.30
2010,07,21,15,48,21.30
2010,07,21,15,49,21.30
2010,07,21,15,50,21.30
2010,07,21,15,51,21.30
2010,07,21,15,52,21.30
2010,07,21,15,53,21.20
2010,07,21,15,54,21.30
2010,07,21,15,55,21.30
2010,07,21,15,56,21.40
2010,07,21,15,57,21.50
2010,07,21,15,58,21.60
2010,07,21,15,59,21.70
2010,07,21,16,00,21.80
2010,07,21,16,01,21.80
2010,07,21,16,02,21.80
2010,07,21,16,03,21.90
2010,07,21,16,04,21.90
2010,07,21,16,05,21.80
2010,07,21,16,06,21.70
2010,07,21,16,07,21.60
2010,07,21,16,08,21.50
2010,07,21,16,09,21.40
2010,07,21,16,10,21.30
2010,07,21,16,11,21.10
2010,07,21,16,12,21.10
2010,07,21,16,13,21.00
2010,07,21,16,14,21.00
2010,07,21,16,15,20.90
2010,07,21,16,16,20.90
2010,07,21,16,17,21.00
2010,07,21,16,18,21.00
2010,07,21,16,19,21.10
2010,07,21,16,20,21.10
2010,07,21,16,21,21.10
2010,07,21,16,22,21.20
2010,07,21,16,23,21.30
2010,07,21,16,24,21.30
2010,07,21,16,25,21.40
2010,07,21,16,26,21.40
2010,07,21,16,27,21.30
2010,07,21,16,28,21.20
2010,07,21,16,29,21.20
2010,07,21,16,30,21.10
2010,07,21,16,31,21.10
2010,07,21,16,32,21.00
2010,07,21,16,33,21.00
2010,07,21,16,34,20.90
2010,07,21,16,35,20.80
2010,07,21,16,36,20.80
2010,07,21,16,37,20.80
2010,07,21,16,38,20.80
2010,07,21,16,39,20.80
2010,07,21,16,40,20.70
2010,07,21,16,41,20.70
2010,07,21,16,42,20.70
2010,07,21,16,43,20.70
2010,07,21,16,44,20.70
2010,07,21,16,45,20.80
2010,07,21,16,46,20.80
2010,07,21,16,47,20.80
2010,07,21,16,48,20.80
2010,07,21,16,49,20.80
2010,07,21,16,50,20.80
2010,07,21,16,51,20.80
2010,07,21,16,52,20.70
2010,07,21,16,53,20.70
2010,07,21,16,54,20.70
2010,07,21,16,55,20.60
2010,07,21,16,56,20.60
2010,07,21,16,57,20.60
2010,07,21,16,58,20.60
2010,07,21,16,59,20.50
2010,07,21,17,00,20.40
2010,07,21,17,01,20.30
2010,07,21,17,02,20.30
2010,07,21,17,03,20.30
2010,07,21,17,04,20.30
2010,07,21,17,05,20.40
2010,07,21,17,06,20.40
2010,07,21,17,07,20.40
2010,07,21,17,08,20.50
2010,07,21,17,09,20.50
2010,07,21,17,10,20.50
2010,07,21,17,11,20.60
2010,07,21,17,12,20.60
2010,07,21,17,13,20.60
2010,07,21,17,14,20.60
2010,07,21,17,15,20.60
2010,07,21,17,16,20.70
2010,07,21,17,17,20.70
2010,07,21,17,18,20.70
2010,07,21,17,19,20.70
2010,07,21,17,20,20.70
2010,07,21,17,21,20.70
2010,07,21,17,22,20.70
2010,07,21,17,23,20.60
2010,07,21,17,24,20.70
2010,07,21,17,25,20.70
2010,07,21,17,26,20.70
2010,07,21,17,27,20.70
2010,07,21,17,28,20.80
2010,07,21,17,29,20.80
2010,07,21,17,30,20.80
2010,07,21,17,31,20.80
2010,07,21,17,32,20.80
2010,07,21,17,33,20.80
2010,07,21,17,34,20.90